Simultaneous Nadir Overpasses (SNOs) Predictions

Prediction of SNOs between FY3D and TERRA Satellite Orbit:

Table of predicted SNOs for the next 14.0 days since TLE Epoch: 11/18/2023
Index Date (FY3D) Time (FY3D) Lat,Lon (FY3D) SZA (FY3D ) Date (TERRA) Time (TERRA) Lat,Lon (TERRA) SZA (TERRA ) Distance(km) Time Diff (sec)
1 11/18/2023 08:55:55 -74.47,-134.00 86.39 11/18/2023 08:56:31 -74.44,-133.99 86.42 2.99 36
2 11/18/2023 09:46:40 74.38, 33.54 93.53 11/18/2023 09:45:53 74.37, 33.50 93.52 1.73 47
3 11/20/2023 20:59:53 74.46,-134.92 94.18 11/20/2023 21:00:01 74.47,-134.84 94.19 2.74 8
4 11/20/2023 21:50:36 -74.39, 32.57 85.88 11/20/2023 21:49:26 -74.37, 32.58 85.91 2.99 70
5 11/23/2023 08:13:05 74.50, 56.72 94.75 11/23/2023 08:14:10 74.50, 56.66 94.75 2.01 65
6 11/23/2023 09:03:48 -74.43,-135.79 85.31 11/23/2023 09:03:34 -74.44,-135.81 85.30 1.70 14
7 11/25/2023 20:17:01 -74.52, 55.72 84.73 11/25/2023 20:17:42 -74.50, 55.75 84.75 2.51 41
8 11/25/2023 21:07:46 74.43,-136.74 95.19 11/25/2023 21:07:04 74.43,-136.75 95.19 0.31 42
9 11/28/2023 08:20:57 74.48, 54.88 95.70 11/28/2023 08:21:11 74.47, 54.78 95.68 3.22 14
10 11/28/2023 09:11:40 -74.41,-137.63 84.37 11/28/2023 09:10:35 -74.41,-137.70 84.37 2.04 65
11 11/30/2023 19:34:09 74.54,-113.53 96.16 11/30/2023 19:35:18 74.54,-113.62 96.17 2.79 69
12 11/30/2023 20:24:52 -74.47, 53.97 83.90 11/30/2023 20:24:42 -74.48, 53.89 83.89 2.51 10



Historial Predications of SNOs between FY3D and TERRA
